Flag for U.S.A. Weather past 2 weeks in Bridgeport, Connecticut, U.S.A.

Now
30 °F

Passing clouds.


Feels Like: 24 °F
Forecast: 26 / 38 °F
Wind: 6 mph from Northwest

Location: Sikorsky Memorial Airport

Current Time: Dec 20, 2014 at 12:38:48 AM

Latest Report: Dec 19, 2014 at 11:52 PM


Visibility: 10 mi

Pressure: 30.18 "Hg

Humidity: 69%

Dew point: 21 °F

Location of BridgeportLocation

Historic Weather in Bridgeport — Graph

°F

Bridgeport temperature yesterday

Maximum temperature yesterday: 41 °F (at 12:52 PM)
Minimum temperature yesterday: 30 °F (at 9:52 PM)
Average temperature yesterday: 36 °F

Past Weeks' High & Low Weather Summary

 TemperatureHumidityPressure
High53 °F (Dec 17, 12:52 PM)100% (Dec 6, 1:59 AM)30.71 "Hg (Dec 6, 1:59 AM)
Low21 °F (Dec 8, 6:52 AM)34% (Dec 7, 1:52 PM)29.50 "Hg (Dec 10, 2:52 PM)
Average38 °F72%30.04 "Hg
* Reported Dec 4 10:52 PM — Dec 19 10:52 PM, Bridgeport, Weather by CustomWeather, © 2014

Note: Actual official high and low records may vary slightly from our data, if they occured in-between our weather recording intervals... More about our weather records

Advertising

Bridgeport weather history for previous 24 hours

 ConditionsComfort  
Time TempWeatherWind HumidityBarometerVisibility
10:52 PM
Dec 19
30 °FClear.8 mph69%30.16 "Hg10 mi
9:52 PM30 °FClear.7 mph66%30.15 "Hg10 mi
8:52 PM31 °FClear.6 mph64%30.14 "Hg10 mi
7:52 PM31 °FClear.7 mph64%30.14 "Hg10 mi
6:52 PM32 °FClear.9 mph64%30.12 "Hg10 mi
5:52 PM34 °FOvercast.10 mph61%30.09 "Hg10 mi
4:52 PM36 °FPassing clouds.14 mph57%30.06 "Hg10 mi
3:52 PM38 °FOvercast.12 mph53%30.04 "Hg10 mi
2:52 PM39 °FOvercast.12 mph53%30.02 "Hg10 mi
1:52 PM40 °FMore clouds than sun.10 mph51%30.00 "Hg10 mi
12:52 PM41 °FPartly sunny.8 mph47%29.99 "Hg10 mi
11:52 AM40 °FSunny.13 mph49%29.99 "Hg10 mi
10:52 AM39 °FPassing clouds.14 mph48%30.02 "Hg10 mi
9:52 AM37 °FOvercast.14 mph57%30.03 "Hg10 mi
8:52 AM37 °FOvercast.7 mph62%30.02 "Hg10 mi
7:52 AM37 °FOvercast.5 mph65%30.00 "Hg10 mi
6:52 AM37 °FOvercast.7 mph67%29.98 "Hg10 mi
5:52 AM37 °FOvercast.3 mph67%29.96 "Hg10 mi
4:52 AM37 °FOvercast.3 mph67%29.95 "Hg10 mi
3:52 AM37 °FMostly cloudy.5 mph67%29.94 "Hg10 mi
2:52 AM36 °FOvercast.5 mph70%29.95 "Hg10 mi
1:52 AM36 °FOvercast.5 mph73%29.95 "Hg10 mi
12:52 AM36 °FOvercast.No wind73%29.94 "Hg10 mi
Weather by CustomWeather, © 2014

See weather overviewHow to use our weather pages